Weather History for Mountain Home, ID

Change the Weather History Date:

Friday, January 11, 2013

  Actual Average Record
Temperature  
Mean Temperature 19 °F 30 °F  
Max Temperature 25 °F 38 °F 58 °F (1953)
Min Temperature 12 °F 21 °F -16 °F (1949)
Degree Days  
Heating Degree Days 46 35  
Month to date heating degree days 448 391  
Cooling Degree Days 0 0  
Month to date cooling degree days 0 0  
Moisture  
Dew Point 21 °F    
Average Humidity 98    
Maximum Humidity 100    
Minimum Humidity 82    
Precipitation  
Precipitation T in 0.04 in 0.79 in (1979)
Month to date precipitation 0.11 0.43  
Sea Level Pressure  
Sea Level Pressure 29.93 in    
Wind  
Wind Speed 24 mph (NW)    
Max Wind Speed 32 mph    
Max Gust Speed 39 mph    
Visibility 7 miles    
Events Snow    
T = Trace of Precipitation, MM = Missing Value Source: NWS Daily Summary

Daily Weather History Graph

Daily Weather History Graph

Search for Another Location

Airport:

Trip Planner

Search our weather history database for the weather conditions in past years. The results will help you decide how hot, cold, wet, or windy it might be!

Date:

Astronomy

Jan. 11, 2013 Rise Set
Actual Time 8:13 AM MST 5:29 PM MST
Civil Twilight 7:41 AM MST 6:01 PM MST
Nautical Twilight 7:06 AM MST 6:36 PM MST
Astronomical Twilight 6:32 AM MST 7:11 PM MST
Moon 7:49 AM MST (1/11) 5:54 PM MST (1/11)
Length of Visible Light 10h 19m
Length of Day
9h 16m
Waning Crescent, 0% of the Moon is Illuminated
Jan 11
Waning Crescent
Jan 11
New
Jan 18
First Quarter
Jan 26
Full
Feb 3
Last Quarter

Hourly Weather History & Observations

Time (MST) Temp. Windchill Dew Point Humidity Pressure Visibility Wind Dir Wind Speed Gust Speed Precip Events Conditions
1:58 AM 24.8 °F 8.7 °F 24.8 °F 100% 29.83 in 10.0 mi NW 26.5 mph 32.2 mph N/A   Overcast
2:03 AM 24.8 °F 9.3 °F 24.8 °F 100% 29.75 in 10.0 mi NW 24.2 mph - N/A   Overcast
3:58 AM 24.4 °F 9.2 °F 24.4 °F 100% 29.83 in 10.0 mi NW 23.0 mph - 0.00 in   Overcast
4:55 AM 24.8 °F 8.1 °F 24.8 °F 100% 29.82 in 5.0 mi WNW 28.8 mph 36.8 mph 0.00 in Snow Light Snow
5:58 AM 24.3 °F 8.3 °F 24.3 °F 100% 29.85 in 5.0 mi WNW 25.3 mph - 0.00 in Snow Light Snow
6:58 AM 23.9 °F 7.2 °F 23.9 °F 100% 29.86 in 10.0 mi WNW 27.6 mph 33.4 mph 0.00 in   Clear
7:20 AM 23.0 °F 6.0 °F 23.0 °F 100% 29.77 in 0.5 mi WNW 27.6 mph 39.1 mph N/A Snow Blowing Snow
7:25 AM 23.0 °F 6.0 °F 23.0 °F 100% 29.79 in 4.0 mi WNW 27.6 mph 39.1 mph N/A Snow Light Snow
7:40 AM 23.0 °F 4.9 °F 23.0 °F 100% 29.80 in 6.0 mi NW 32.2 mph 36.8 mph N/A Snow Blowing Snow
7:45 AM 23.0 °F 5.4 °F 23.0 °F 100% 29.80 in 5.0 mi NW 29.9 mph 36.8 mph N/A Snow Light Snow
7:50 AM 23.0 °F 6.0 °F 23.0 °F 100% 29.81 in 5.0 mi NW 27.6 mph - N/A Snow Light Snow
7:55 AM 23.0 °F 6.0 °F 23.0 °F 100% 29.81 in 4.0 mi NW 27.6 mph - N/A Snow Light Snow
7:58 AM 23.7 °F 6.7 °F 23.7 °F 100% 29.90 in 4.0 mi NW 28.8 mph - 0.00 in Snow Light Snow
8:03 AM 23.0 °F 5.7 °F 23.0 °F 100% 29.81 in 5.0 mi NW 28.8 mph 34.5 mph N/A Snow Blowing Snow
8:13 AM 23.0 °F 6.3 °F 23.0 °F 100% 29.82 in 1.0 mi NW 26.5 mph 34.5 mph N/A Snow Blowing Snow
8:18 AM 23.0 °F 6.3 °F 23.0 °F 100% 29.82 in 1.0 mi NW 26.5 mph 32.2 mph N/A   Overcast
8:23 AM 23.0 °F 7.2 °F 23.0 °F 100% 29.82 in 1.0 mi NW 23.0 mph 32.2 mph N/A Snow Light Snow
8:28 AM 23.0 °F 6.6 °F 23.0 °F 100% 29.83 in 1.0 mi NW 25.3 mph 31.1 mph N/A Snow Light Snow
8:33 AM 23.0 °F 6.6 °F 23.0 °F 100% 29.83 in 2.5 mi NW 25.3 mph 31.1 mph N/A Snow Light Snow
8:48 AM 23.0 °F 6.9 °F 23.0 °F 100% 29.84 in 2.5 mi NW 24.2 mph 31.1 mph N/A Snow Light Snow
8:53 AM 23.0 °F 6.6 °F 23.0 °F 100% 29.84 in 4.0 mi NW 25.3 mph - N/A Snow Light Snow
8:58 AM 23.4 °F 6.8 °F 23.4 °F 100% 29.93 in 1.1 mi NW 26.5 mph - 0.00 in Snow Blowing Snow
9:03 AM 23.0 °F 6.6 °F 23.0 °F 100% 29.84 in 1.5 mi NW 25.3 mph - N/A Snow Blowing Snow
9:23 AM 23.0 °F 6.6 °F 23.0 °F 100% 29.85 in 5.0 mi NW 25.3 mph 34.5 mph N/A Snow Blowing Snow
9:58 AM 22.5 °F 6.2 °F 22.5 °F 100% 29.95 in 6.0 mi NW 24.2 mph 32.2 mph N/A Snow Blowing Snow
10:58 AM 22.3 °F 6.3 °F 22.3 °F 100% 29.98 in 10.0 mi NW 23.0 mph 31.1 mph N/A   Mostly Cloudy
11:55 AM 23.9 °F 7.8 °F 21.0 °F 89% 29.99 in 10.0 mi NW 25.3 mph - N/A   Mostly Cloudy
11:58 AM 23.9 °F 7.8 °F 21.0 °F 89% 29.99 in 10.0 mi NW 25.3 mph - N/A   Mostly Cloudy
12:58 PM 23.2 °F 6.5 °F 20.8 °F 91% 29.90 in 10.0 mi NW 26.5 mph - N/A   Clear
1:58 PM 24.3 °F 7.7 °F 19.6 °F 82% 30.00 in 10.0 mi NW 27.6 mph 36.8 mph N/A   Partly Cloudy
2:58 PM 23.5 °F 8.0 °F 19.6 °F 85% 29.92 in 10.0 mi NW 23.0 mph - N/A   Partly Cloudy
3:58 PM 23.2 °F 7.5 °F 19.0 °F 84% 30.05 in 10.0 mi NW 23.0 mph 31.1 mph N/A   Partly Cloudy
4:58 PM 21.4 °F 5.8 °F 18.1 °F 87% 29.97 in 10.0 mi NW 20.7 mph - N/A   Clear
5:58 PM 19.9 °F 4.3 °F 18.9 °F 96% 30.08 in 10.0 mi NW 19.6 mph - N/A   Clear
6:58 PM 18.7 °F 3.6 °F 18.5 °F 99% 30.11 in 10.0 mi WNW 17.3 mph - N/A   Clear
7:58 PM 18.1 °F 2.4 °F 18.0 °F 99% 30.12 in 10.0 mi WNW 18.4 mph - N/A   Clear
8:58 PM 16.9 °F 1.2 °F 16.7 °F 99% 30.13 in 10.0 mi NW 17.3 mph - N/A   Clear
9:58 PM 14.4 °F 5.5 °F 14.4 °F 100% 30.18 in 10.0 mi NE 5.8 mph - N/A   Clear
10:23 PM 14.0 °F 2.9 °F 14.0 °F 100% 30.08 in 10.0 mi North 8.1 mph - N/A   Mostly Cloudy
10:53 PM 14.0 °F 3.9 °F 14.0 °F 100% 30.09 in 10.0 mi North 6.9 mph - N/A   Scattered Clouds
10:58 PM 13.3 °F 4.2 °F 13.3 °F 100% 30.21 in 10.0 mi NNE 5.8 mph - N/A   Partly Cloudy
11:08 PM 12.2 °F 2.9 °F 12.2 °F 100% 30.09 in 10.0 mi North 5.8 mph - N/A   Mostly Cloudy
11:58 PM 15.4 °F 6.8 °F 15.4 °F 100% 30.22 in 10.0 mi NNW 5.8 mph - N/A   Overcast